DateTimeUTC,F1_A11,F1_S11,BsB_S11,BsG_S11,BsR_S11,BbsB_S11,BbsG_S11,BbsR_S11,BaB_A11,BaG_A11,BaR_A11,Tu_S11,T_S11,Uu_S11,U_S11,P_S11,T1_A11
2021-08-20T03:00:00Z,00000200,20000000,,,,,,,0000.28,0000.07,-000.05,19.4,26.2,10.6,07.0,0674.9,31.1
2021-08-20T03:01:00Z,00000200,20000000,,,,,,,-000.40,-000.10,-000.12,19.4,26.2,10.3,06.8,0674.9,31.1
2021-08-20T03:02:00Z,00000200,20000000,,,,,,,0000.14,-000.05,0000.01,19.4,26.2,10.3,06.8,0674.9,31.1
2021-08-20T03:03:00Z,00000200,60000000,,,,,,,0000.64,0000.81,0000.47,19.4,26.2,10.3,06.8,0674.9,31.1
2021-08-20T03:04:00Z,00000200,40000000,0003.62,0002.22,0001.50,0000.69,0000.44,0000.07,0000.84,0001.05,0000.81,19.5,26.0,10.4,07.0,0675.8,31.1
2021-08-20T03:05:00Z,00000200,00000000,0003.57,0002.21,0001.66,0000.69,0000.22,0000.49,0000.93,0000.25,0000.43,19.6,26.0,10.6,07.2,0675.9,31.1
2021-08-20T03:06:00Z,00000200,00000000,0003.49,0002.29,0001.23,0000.57,0000.40,0000.50,0000.72,0000.85,0000.16,19.6,26.0,10.5,07.1,0675.9,31.1
2021-08-20T03:07:00Z,00000200,00000000,0002.76,0001.82,0001.36,0000.74,0000.23,0000.46,0000.83,0000.58,0000.71,19.6,26.0,10.6,07.2,0675.9,31.1
2021-08-20T03:08:00Z,00000200,00000000,0003.15,0001.96,0001.44,0000.68,0000.49,0000.46,0000.36,0000.87,0000.63,19.6,26.0,10.6,07.2,0675.9,31.1
2021-08-20T03:09:00Z,00000200,00000000,0003.11,0001.90,0001.34,0000.63,0000.24,0000.28,0001.00,0000.38,0000.46,19.6,26.0,10.5,07.1,0675.8,31.1
2021-08-20T03:10:00Z,00000200,00000000,0002.50,0001.86,0001.20,0000.45,0000.46,0000.00,0000.33,0000.43,0000.30,19.6,26.0,10.6,07.2,0675.8,31.1
2021-08-20T03:11:00Z,00000200,00000000,0003.00,0001.99,0001.09,0000.24,0000.43,0000.41,0000.59,0000.77,0000.35,19.6,26.0,10.6,07.2,0675.8,31.1
2021-08-20T03:12:00Z,00000200,00000000,0002.49,0001.86,0001.05,-000.03,0000.22,0000.24,0001.05,0000.51,0000.70,19.6,26.0,10.6,07.2,0675.8,31.1
2021-08-20T03:13:00Z,00000200,00000000,0002.53,0001.92,0001.32,0000.20,0000.19,0000.32,0000.30,0000.74,0000.51,19.6,25.9,10.6,07.2,0675.8,31.1
2021-08-20T03:14:00Z,00000200,00000000,0002.48,0002.03,0001.29,0000.43,0000.12,0000.23,0000.94,0000.46,0000.42,19.6,25.9,10.5,07.1,0675.8,31.1
2021-08-20T03:15:00Z,00000200,00000000,0003.56,0002.14,0001.33,0000.28,0000.14,0000.19,0000.25,0000.47,0000.28,19.6,25.9,10.6,07.2,0675.8,31.1
2021-08-20T03:16:00Z,00000200,00000000,0002.50,0001.50,0001.36,0000.60,0000.21,0000.05,0001.09,0001.03,0000.67,19.6,25.9,10.7,07.2,0675.8,31.1
2021-08-20T03:17:00Z,00000200,00000000,0002.85,0001.79,0001.37,0000.28,0000.23,0000.30,0000.47,0000.16,0000.41,19.6,25.9,10.6,07.2,0675.8,31.1
2021-08-20T03:18:00Z,00000200,00000000,0002.85,0001.85,0001.45,0000.23,0000.09,0000.40,0000.86,0000.88,0000.56,19.6,25.9,10.6,07.2,0675.8,31.1
2021-08-20T03:19:00Z,00000200,00000000,0002.80,0001.68,0001.16,0000.07,0000.49,0000.36,0000.52,0000.71,0000.62,19.6,25.9,10.8,07.3,0675.8,31.1
2021-08-20T03:20:00Z,00000200,00000000,0003.01,0001.65,0001.37,0000.66,0000.24,0000.36,0000.82,0000.55,0000.08,19.6,25.9,10.7,07.3,0675.8,31.1
2021-08-20T03:21:00Z,00000200,00000000,0002.63,0001.83,0001.37,-000.18,0000.48,0000.03,0000.17,-000.03,0000.53,19.6,25.9,10.7,07.3,0675.8,31.1
2021-08-20T03:22:00Z,00000200,00000000,0002.96,0002.05,0001.40,0000.08,0000.31,0000.22,0000.91,0000.90,0000.34,19.6,25.9,10.9,07.4,0675.7,31.1
2021-08-20T03:23:00Z,00000200,00000000,0002.76,0002.11,0001.20,0000.10,0000.45,0000.20,0000.67,0000.94,0000.74,19.6,25.9,10.9,07.4,0675.8,31.1
2021-08-20T03:24:00Z,00000200,00000000,0002.76,0001.85,0000.86,0000.34,0000.57,0000.39,0000.76,0000.55,0000.39,19.6,25.9,11.0,07.5,0675.8,31.1
2021-08-20T03:25:00Z,00000200,00000000,0002.45,0001.90,0001.03,0000.61,0000.36,0000.45,0000.62,0000.45,0000.54,19.6,25.9,11.0,07.5,0675.8,31.1
2021-08-20T03:26:00Z,00000200,00000000,0001.78,0002.05,0001.48,0000.55,0000.38,-000.01,0000.41,0000.45,0000.13,19.6,25.9,10.9,07.4,0675.8,31.1
2021-08-20T03:27:00Z,00000200,00000000,0002.76,0001.58,0001.23,-000.36,0000.40,0000.39,0000.66,0000.65,0000.79,19.6,25.9,10.9,07.5,0675.8,31.1
2021-08-20T03:28:00Z,00000200,00000000,0002.42,0001.87,0001.12,0000.63,0000.32,0000.00,0000.68,0000.95,0000.46,19.6,25.9,10.9,07.4,0675.8,31.1
2021-08-20T03:29:00Z,00000200,00000000,0002.96,0001.75,0001.18,0000.21,0000.73,0000.44,0000.45,0000.32,0000.68,19.6,25.9,10.8,07.4,0675.8,31.1
2021-08-20T03:30:00Z,00000200,00000000,0002.96,0001.69,0001.03,0000.71,0000.45,0000.04,0000.90,0000.41,0000.42,19.6,25.9,11.0,07.5,0675.8,31.1
2021-08-20T03:31:00Z,00000200,00000000,0002.38,0001.56,0001.18,-000.06,0000.17,0000.37,0000.61,0000.80,0000.18,19.6,25.9,11.1,07.5,0675.8,31.1
2021-08-20T03:32:00Z,00000200,00000000,0003.25,0001.79,0001.39,0000.33,0000.14,0000.30,0000.65,0000.70,0000.55,19.6,25.9,11.1,07.5,0675.8,31.1
2021-08-20T03:33:00Z,00000200,00000000,0002.85,0001.65,0001.43,-000.04,0000.20,-000.03,0000.70,0000.49,0000.54,19.6,25.9,11.1,07.6,0675.8,31.1
2021-08-20T03:34:00Z,00000200,00000000,0002.72,0001.83,0000.96,0000.75,0000.22,0000.42,0000.93,0000.72,0000.17,19.6,25.9,11.2,07.6,0675.8,31.1
2021-08-20T03:35:00Z,00000200,00000000,0002.78,0001.77,0001.15,0000.90,0000.16,0000.23,0000.34,0000.73,0000.74,19.6,25.9,11.3,07.7,0675.8,31.1
2021-08-20T03:36:00Z,00000200,00000000,0002.38,0001.67,0001.31,0000.63,0000.09,0000.20,0000.81,0000.46,0000.70,19.6,25.9,11.2,07.7,0675.8,31.1
2021-08-20T03:37:00Z,00000200,00000000,0002.68,0001.77,0001.11,0000.75,0000.53,0000.39,0000.41,0000.46,0000.24,19.6,25.9,11.4,07.8,0675.8,31.1
2021-08-20T03:38:00Z,00000200,00000000,0002.88,0001.49,0000.97,0000.23,0000.33,0000.34,0000.76,0000.62,0000.54,19.6,25.9,11.4,07.8,0675.8,31.1
2021-08-20T03:39:00Z,00000200,00000000,0002.66,0001.94,0001.11,0000.23,0000.42,-000.05,0000.84,0000.53,0000.35,19.6,25.9,11.4,07.8,0675.8,31.1
2021-08-20T03:40:00Z,00000200,00000000,0002.80,0001.70,0001.26,0000.14,0000.44,0000.28,0000.48,0000.63,0000.46,19.6,25.9,11.5,07.8,0675.8,31.1
2021-08-20T03:41:00Z,00000200,00000000,0002.21,0001.50,0001.51,0000.71,0000.61,0000.56,0000.70,0000.83,0000.38,19.6,25.9,11.4,07.8,0675.7,31.1
2021-08-20T03:42:00Z,00000200,00000000,0002.57,0001.95,0001.55,0000.49,0000.47,0000.42,0000.39,0000.44,0000.52,19.6,25.9,11.6,07.9,0675.7,31.1
2021-08-20T03:43:00Z,00000200,00000000,0003.36,0001.60,0001.21,0000.28,0000.20,0000.18,0001.22,0000.77,0000.60,19.6,25.9,11.5,07.9,0675.7,31.1
2021-08-20T03:44:00Z,00000200,00000000,0002.10,0001.67,0001.22,-000.07,0000.07,0000.24,0000.40,0000.62,0000.64,19.6,25.9,11.5,07.9,0675.8,31.1
2021-08-20T03:45:00Z,00000200,00000000,0003.29,0001.52,0001.41,0000.61,0000.24,0000.49,0000.58,0000.36,0000.13,19.6,25.9,11.6,07.9,0675.7,31.1
2021-08-20T03:46:00Z,00000200,00000000,0002.57,0001.78,0001.15,0000.34,0000.29,0000.20,0000.42,0000.81,0000.48,19.6,25.9,11.8,08.0,0675.7,31.1
2021-08-20T03:47:00Z,00000200,00000000,0002.23,0001.49,0000.95,0000.25,0000.63,0000.27,0000.58,0000.39,0000.33,19.6,25.9,11.8,08.1,0675.8,31.1
2021-08-20T03:48:00Z,00000200,00000000,0002.60,0001.57,0000.88,0000.24,0000.28,0000.23,0000.82,0000.91,0000.67,19.6,25.9,11.8,08.0,0675.7,31.1
2021-08-20T03:49:00Z,00000200,00000000,0002.62,0001.48,0001.18,0000.17,0000.42,0000.43,0000.56,0000.22,0000.62,19.6,25.9,11.9,08.1,0675.7,31.1
2021-08-20T03:50:00Z,00000200,00000000,0003.56,0001.73,0001.06,0000.90,0000.53,0000.52,0000.54,0000.76,0000.09,19.6,25.9,11.9,08.1,0675.7,31.1
2021-08-20T03:51:00Z,00000200,00000000,0002.56,0001.62,0001.20,0000.76,0000.30,0000.17,0000.77,0000.47,0000.30,19.6,25.9,11.9,08.1,0675.7,31.1
2021-08-20T03:52:00Z,00000200,00000000,0002.70,0001.58,0001.06,0000.47,0000.08,0000.16,0000.42,0000.32,0000.60,19.6,25.9,12.0,08.2,0675.7,31.1
2021-08-20T03:53:00Z,00000200,00000000,0001.73,0001.20,0000.88,0000.13,0000.14,0000.26,0000.76,0000.49,0000.57,19.6,25.9,12.0,08.2,0675.7,31.1
2021-08-20T03:54:00Z,00000200,00000000,0002.47,0001.60,0000.88,0000.64,0000.41,0000.28,0000.44,0000.44,0000.04,19.6,25.9,12.0,08.2,0675.7,31.1
2021-08-20T03:55:00Z,00000200,00000000,0002.35,0001.59,0000.91,0000.43,0000.24,0000.06,0000.18,0000.38,0000.47,19.6,25.9,12.1,08.2,0675.7,31.1
2021-08-20T03:56:00Z,00000200,00000000,0002.36,0001.73,0000.83,0000.41,0000.12,0000.24,0000.62,0000.66,0000.44,19.6,25.9,12.0,08.2,0675.7,31.1
2021-08-20T03:57:00Z,00000200,40000000,,,,,,,-000.05,-000.09,-000.13,19.6,25.9,11.9,08.1,0675.8,31.1
2021-08-20T03:58:00Z,00000200,60000000,,,,,,,0000.07,0000.03,0000.19,19.4,26.0,11.8,07.9,0674.8,31.1
2021-08-20T03:59:00Z,00000200,20000000,,,,,,,0000.10,-000.15,-000.02,19.4,26.1,11.8,07.9,0674.7,31.1
